This is the latest recevied weather packets stored in our database for station/object UHMM. If no packets are shown the sender has not sent any weather packets the latest 10 day(s).
| Time | Temp. | Humidity | Pressure | Rain* | Wind** | Luminosity | Snow |
|---|---|---|---|---|---|---|---|
| 1777762808 | 0° C | 69% | 1006 hPa | - | - | - | - |
| 1777761010 | -1.11° C | 74% | 1006 hPa | - | - | - | - |
| 1777755611 | -3.33° C | 73% | 1006 hPa | - | - | - | - |
| 1777753808 | -3.33° C | 73% | 1006 hPa | - | - | - | - |
| 1777752009 | -6.11° C | 85% | 1006 hPa | - | - | - | - |
| 1777750209 | -6.11° C | 85% | 1006 hPa | - | - | - | - |
| 1777746610 | -4.44° C | 79% | 1006 hPa | - | - | - | - |
| 1777744810 | -6.11° C | 92% | 1006 hPa | - | - | - | - |
| 1777741209 | -4.44° C | 79% | 1006 hPa | - | - | - | - |
| 1777737609 | -7.22° C | 92% | 1006 hPa | - | - | - | - |
| 1777735809 | -7.22° C | 92% | 1006 hPa | - | - | - | - |
| 1777734009 | -4.44° C | 79% | 1007 hPa | - | - | - | - |
| 1777732210 | -4.44° C | 79% | 1007 hPa | - | - | - | - |
| 1777730408 | -2.22° C | 79% | 1007 hPa | - | - | - | - |
| 1777728609 | -2.22° C | 79% | 1007 hPa | - | - | - | - |
| 1777726809 | -1.11° C | 74% | 1007 hPa | - | - | - | - |
| 1777723210 | -2.22° C | 74% | 1007 hPa | - | - | - | - |
| 1777721408 | -2.22° C | 74% | 1007 hPa | - | - | - | - |
| 1777719612 | -2.22° C | 86% | 1007 hPa | - | - | - | - |
| 1777717811 | -2.22° C | 86% | 1007 hPa | - | - | - | - |
| 1777716009 | 0.56° C | 69% | 1006 hPa | - | - | - | - |
| 1777714208 | 0.56° C | 69% | 1006 hPa | - | - | - | - |
| 1777712409 | 1.67° C | 69% | 1006 hPa | - | - | - | - |
| 1777710612 | 2.78° C | 59% | 1006 hPa | - | - | - | - |
| 1777708808 | 2.78° C | 64% | 1006 hPa | - | - | - | - |
* Rain since midnight (hover to see other rain measurements)
** Current wind speed in m/s (hover to see current wind gust speed)